SCP
0 0 0 0 0 0 0 0 0 0 0 0 0 0 0 0 0 0 0 0 0 0 0 0 0 0 0 0 0 0 0 0 0 0 0 0 0 0 0 0 0 0 0
0 0 0 0 0 0 0 0 0 0 0 0 0 0 0 0 0 0 0 0 0 0 0 0 0 0 0 0 0 0 0 0 0 0 0 0 0 0 0 0 0 0 0
0 0 0 0 0 0 0 0 0 0 0 0 0 0 0 0 0 0 0 0 0 0 0 0 0 0 0 0 0 0 0 0 0 0 0 0 0 0 0 0 0 0 0
0 0 0 0 0 0 0 0 0 0 0 0 0 0 0 0 0 0 0 0 0 0 0 0 0 0 0 0 0 0 0 0 0 0 0 0 0 0 0 0 0 0 0
0 0 0 0 0 0 0 0 0 0 0 0 0 0 0 0 0 0 0 0 0 0 0 0 0 0 0 0 0 0 0 0 0 0 0 0 0 0 0 0 0 0 0
0 0 0 0 0 0 0 0 0 0 0 0 0 0 0 0 0 0 0 0 0 0 0 0 0 0 0 0 0 0 0 0 0 0 0 0 0 0 0 0 0 0 0
0 0 0 0 0 0 0 0 0 0 0 0 0 0 0 0 0 0 0 0 0 0 0 0 0 0 0 0 0 0 0 0 0 0 0 0 0 0 0 0 0 0 0
0 0 0 0 0 0 0 0 0 0 0 0 0 0 0 0 0 0 0 0 0 0 0 0 0 0 0 0 0 0 0 0 0 0 0 0 0 0 0 0 0 0 0
0 0 0 0 0 0 0 0 0 0 0 0 0 0 0 0 0 0 0 0 0 0 0 0 0 0 0 0 0 0 0 0 0 0 0 0 0 0 0 0 0 0 0
0 0 0 0 0 0 0 0 0 0 0 0 0 0 0 0 0 0 0 0 0 0 0 0 0 0 0 0 0 0 0 0 0 0 0 0 0 0 0 0 0 0 0
0 0 0 0 0 0 0 0 0 0 0 0 0 0 0 0 0 0 0 0 0 0 0 0 0 0 0 0 0 0 0 0 0 0 0 0 0 0 0 0 0 0 0
0 0 0 0 0 0 0 0 0 0 0 0 0 0 0 0 0 0 0 0 0 0 0 0 0 0 0 0 0 0 0 0 0 0 0 0 0 0 0 0 0 0 0
0 0 0 0 0 0 0 0 0 0 0 0 0 0 0 0 0 0 0 0 0 0 0 0 0 0 0 0 0 0 0 0 0 0 0 0 0 0 0 0 0 0 0
0 0 0 0 0 0 0 0 0 0 0 0 0 0 0 0 0 0 0 0 0 0 0 0 0 0 0 0 0 0 0 0 0 0 0 0 0 0 0 0 0 0 0
0 0 0 0 0 0 0 0 0 0 0 0 0 0 0 0 0 0 0 0 0 0 0 0 0 0 0 0 0 0 0 0 0 0 0 0 0 0 0 0 0 0 0
0 0 0 0 0 0 0 0 0 0 0 0 0 0 0 0 0 0 0 0 0 0 0 0 0 0 0 0 0 0 0 0 0 0 0 0 0 0 0 0 0 0 0
0 0 0 0 0 0 0 0 0 0 0 0 0 0 0 0 0 0 0 0 0 0 0 0 0 0 0 0 0 0 0 0 0 0 0 0 0 0 0 0 0 0 0
0 0 0 0 0 0 0 0 0 0 0 0 0 0 0 0 0 0 0 0 0 0 0 0 0 0 0 0 0 0 0 0 0 0 0 0 0 0 0 0 0 0 0
0 0 0 0 0 0 0 0 0 0 0 0 0 0 0 0 0 0 0 0 0 0 0 0 0 0 0 0 0 0 0 0 0 0 0 0 0 0 0 0 0 0 0
0 0 0 0 0 0 0 0 0 0 0 0 0 0 0 0 0 0 0 0 0 0 0 0 0 0 0 0 0 0 0 0 0 0 0 0 0 0 0 0 0 0 0
0 0 0 0 0 0 0 0 0 0 0 0 0 0 0 0 0 0 0 0 0 0 0 0 0 0 0 0 0 0 0 0 0 0 0 0 0 0 0 0 0 0 0
0 0 0 0 0 0 0 0 0 0 0 0 0 0 0 0 0 0 0 0 0 0 0 0 0 0 0 0 0 0 0 0 0 0 0 0 0 0 0 0 0 0 0
0 0 0 0 0 0 0 0 0 0 0 0 0 0 0 0 0 0 0 0 0 0 0 0 0 0 0 0 0 0 0 0 0 0 0 0 0 0 0 0 0 0 0
0 0 0 0 0 0 0 0 0 0 0 0 0 0 0 0 0 0 0 0 0 0 0 0 0 0 0 0 0 0 0 0 0 0 0 0 0 0 0 0 0 0 0
0 0 0 0 0 0 0 0 0 0 0 0 0 0 0 0 0 0 0 0 0 0 0 0 0 0 0 0 0 0 0 0 0 0 0 0 0 0 0 0 0 0 0
0 0 0 0 0 0 0 0 0 0 0 0 0 0 0 0 0 0 0 0 0 0 0 0 0 0 0 0 0 0 0 0 0 0 0 0 0 0 0 0 0 0 0
Wind_Speed
4 5 6 5 6 6 6 5 5 5 5 5 4 5 4 3 3 2 3 2 3 2 1 1 1 2 1 1 0 1 1 1 1 2 2 2 2 2 2 2 2 2 4
4 4 6 5 6 7 6 6 7 6 6 5 5 5 4 4 4 3 3 3 3 3 2 1 1 0 1 1 1 1 0 1 1 2 3 2 2 2 2 2 2 2 2
3 4 5 5 6 7 7 6 7 6 6 6 6 6 5 5 4 4 4 4 3 3 3 2 2 1 1 0 1 1 1 1 1 2 2 2 1 1 2 2 3 2 2
2 4 5 5 6 7 7 6 7 7 7 7 7 7 6 6 6 6 5 5 4 4 4 3 3 3 2 1 1 1 1 2 2 2 2 2 2 1 1 2 2 2 2
2 3 4 5 5 6 6 6 7 7 8 8 8 8 7 6 6 6 6 6 6 5 5 5 3 2 3 2 2 2 2 2 2 2 2 2 2 2 2 2 2 2 2
3 4 4 5 5 6 7 7 7 8 8 8 9 9 8 7 5 6 8 7 7 7 6 6 5 6 6 5 3 3 3 3 3 3 3 3 3 3 2 2 2 3 3
5 5 5 6 6 7 7 7 8 8 9 9 9 9 10 9 8 10 11 9 8 8 7 6 5 5 6 7 8 8 6 4 4 4 4 3 3 3 4 4 3 2 1
7 7 7 6 7 7 7 8 8 9 9 9 9 10 10 10 10 11 11 12 10 9 9 8 8 8 7 7 7 7 6 6 6 6 5 3 3 3 3 3 2 3 2
9 8 8 8 8 7 8 8 8 8 9 9 9 10 11 11 11 13 12 10 10 11 11 10 10 10 7 8 8 8 7 6 4 2 2 3 4 2 1 3 4 4 4
9 9 9 9 9 8 9 9 8 8 9 9 10 10 11 12 10 13 15 10 11 10 9 10 10 11 8 11 11 9 9 7 7 7 6 5 5 5 4 5 4 4 4
8 9 9 9 9 9 9 8 8 8 8 9 10 10 11 12 10 12 14 11 10 10 9 9 8 13 11 13 12 10 8 6 7 7 6 6 6 5 6 5 4 3 3
8 8 9 9 9 8 9 8 8 8 8 8 9 10 8 9 10 10 14 16 12 11 9 8 7 13 14 14 12 9 6 6 6 6 6 6 6 5 5 5 4 3 1
8 9 9 10 8 9 9 9 8 7 7 7 7 8 7 7 7 9 13 15 15 12 9 7 6 10 12 12 12 11 10 8 8 7 7 7 6 6 5 4 5 4 4
9 10 9 9 9 9 7 7 7 7 7 7 8 8 8 7 7 6 7 8 11 12 10 7 8 8 9 8 10 11 10 9 9 8 8 7 6 6 6 6 5 5 5
10 9 10 9 9 9 9 7 8 8 8 9 9 9 9 9 7 7 8 8 8 9 9 8 8 9 10 10 10 10 10 10 9 8 8 7 7 7 6 6 5 6 6
9 9 8 8 8 9 9 9 7 9 11 13 14 13 12 12 12 11 11 12 12 9 9 10 10 11 11 11 11 11 11 10 10 9 9 8 8 8 7 6 6 6 6
10 10 9 9 9 9 10 10 11 10 9 12 14 14 14 15 14 13 12 12 12 12 11 11 11 11 11 11 11 11 11 11 10 10 9 9 9 8 8 7 7 6 6
11 10 10 9 10 10 10 10 10 11 12 10 10 11 12 13 14 13 11 8 8 10 11 12 11 11 11 11 11 11 10 10 10 10 10 10 9 9 8 8 8 8 7
11 9 9 10 11 11 11 11 11 12 12 11 11 10 9 10 11 11 9 8 9 9 10 11 11 10 10 11 11 11 11 11 11 11 10 11 10 9 9 8 8 8 7
10 11 11 11 11 11 11 11 11 11 12 11 11 11 9 9 9 8 7 8 9 9 9 10 10 10 10 10 10 10 11 11 12 11 11 11 10 10 10 10 9 9 8
10 11 12 11 11 11 11 12 12 12 12 12 12 11 10 11 11 11 10 9 9 9 9 9 9 9 10 9 10 12 14 12 11 11 11 11 11 10 9 9 9 8 8
10 11 11 11 11 11 12 12 13 13 13 14 12 12 12 11 11 11 10 10 9 8 8 8 8 7 9 10 11 12 12 13 12 12 11 11 11 10 10 10 9 9 8
11 12 12 12 12 12 13 13 13 13 13 13 13 12 11 11 11 11 11 10 9 8 8 8 8 7 8 9 10 11 12 13 12 13 13 12 11 11 10 11 12 11 10
12 13 13 13 13 13 13 14 13 14 14 14 13 13 12 12 12 13 12 11 10 9 8 8 9 11 13 10 9 10 11 11 12 13 17 14 13 11 11 11 11 12 10
13 13 13 13 13 13 14 14 14 15 14 14 13 13 13 13 13 12 12 11 11 10 10 10 8 10 13 15 13 11 11 13 13 12 13 13 14 13 12 12 11 11 10
14 14 14 13 13 13 14 14 15 15 14 14 13 13 13 13 13 12 12 11 10 10 10 9 10 12 13 13 15 14 14 15 15 15 12 12 13 12 13 11 13 11 11
Wind_Direction
226 224 228 229 233 231 239 244 254 260 250 247 258 265 263 257 252 241 277 283 285 279 248 290 342 351 339 351 314 289 283 273 174 136 132 131 146 126 120 114 124 148 130
244 236 237 236 234 238 237 242 247 254 257 257 254 257 257 257 263 266 261 259 270 282 279 264 269 18 299 325 303 266 281 292 227 158 150 142 132 109 111 108 104 95 105
255 252 248 245 244 247 246 242 249 250 251 252 245 249 252 249 246 246 249 255 254 258 268 269 262 240 248 190 242 237 224 178 211 187 155 134 154 142 126 112 103 90 94
270 263 262 259 255 257 256 250 248 247 247 250 252 248 250 247 244 244 245 252 253 247 246 249 258 252 254 229 221 223 221 194 190 198 172 169 165 169 190 164 139 128 122
309 288 285 283 275 270 265 256 254 252 250 250 252 251 246 246 247 250 244 246 251 246 236 234 234 264 354 315 283 244 214 215 202 200 192 190 185 188 196 189 170 156 141
345 322 313 298 288 276 270 264 257 254 254 252 250 249 247 242 220 230 253 249 247 245 241 233 216 203 202 208 234 270 288 251 228 207 207 207 201 194 189 207 198 196 170
6 351 337 318 303 290 280 270 262 258 254 251 250 250 247 241 210 213 226 251 252 252 249 237 225 213 212 211 197 205 218 239 269 266 231 219 211 197 201 206 206 221 204
12 1 349 332 315 302 288 275 266 262 256 250 250 248 247 242 213 215 216 235 245 244 242 241 233 225 213 221 215 212 213 202 211 232 243 232 220 195 208 222 201 194 188
8 357 348 338 326 315 302 290 280 271 264 256 249 247 247 244 214 212 214 234 237 239 236 234 234 232 199 201 225 223 219 206 177 190 11 54 71 74 213 201 196 203 196
357 348 344 338 331 323 315 305 294 279 269 267 259 252 249 251 223 206 215 236 238 237 233 230 224 235 200 189 219 224 224 216 197 183 189 187 193 179 206 228 216 221 209
348 342 341 339 332 327 322 316 305 292 282 273 268 259 254 252 234 207 210 235 240 240 235 229 220 199 206 200 220 231 223 221 210 205 199 194 196 192 190 207 220 236 233
340 337 336 335 333 332 326 319 314 305 290 281 276 271 262 254 245 223 211 225 247 245 241 237 223 186 197 202 211 219 190 198 218 210 206 201 197 195 192 189 187 194 238
332 333 331 330 332 331 327 322 318 313 303 297 289 281 274 267 250 228 222 224 229 241 245 242 224 184 192 202 209 199 189 205 211 210 210 205 199 192 179 172 170 166 156
326 327 327 327 329 327 324 320 320 317 312 306 300 293 287 276 266 251 238 231 223 229 239 224 201 196 209 215 193 195 209 213 210 211 209 202 188 180 181 178 176 175 170
316 317 320 323 322 318 316 315 311 308 308 300 300 297 291 284 284 290 273 255 241 230 225 221 214 204 205 209 207 203 203 204 206 211 205 195 187 185 182 182 184 187 196
310 314 314 314 315 313 311 307 289 275 278 271 269 275 286 287 293 282 267 261 258 236 224 224 219 214 211 208 206 204 203 204 202 202 201 194 189 188 181 178 185 193 199
302 305 307 307 308 306 305 305 306 299 277 265 263 265 267 278 282 277 266 256 244 220 226 229 223 218 214 211 208 207 205 202 199 198 197 193 190 187 183 182 186 191 194
297 298 296 295 297 298 298 298 299 302 304 303 289 270 265 270 274 270 262 251 242 223 230 230 226 220 215 212 209 206 203 198 196 196 194 191 188 186 185 186 187 192 189
295 295 298 299 296 294 293 292 292 294 295 297 300 297 283 280 273 263 244 245 243 235 232 233 229 223 216 212 208 204 200 197 194 193 193 190 187 186 186 188 185 180 189
288 283 282 289 291 290 290 291 291 293 294 294 295 297 302 301 296 286 262 255 251 247 240 235 231 226 218 211 205 200 199 196 194 194 191 188 187 187 186 186 184 181 188
287 286 281 281 285 289 290 290 290 289 290 290 291 293 293 290 287 282 273 262 256 253 247 240 235 228 220 210 203 202 199 196 193 192 188 186 185 185 184 183 183 183 183
286 287 288 288 288 287 288 289 288 286 286 287 288 288 280 275 278 279 273 266 260 255 254 247 236 229 221 212 206 203 201 197 191 189 186 184 183 183 181 179 179 180 182
282 284 285 285 286 284 282 282 282 282 283 283 285 286 285 281 279 278 276 271 263 256 251 246 237 227 224 218 211 207 204 199 191 185 182 180 180 181 180 179 179 180 182
281 282 284 285 285 285 285 285 284 283 283 283 282 282 282 281 278 277 277 272 263 255 249 243 236 229 224 221 213 210 207 198 188 186 182 178 178 178 177 178 179 181 183
279 279 281 283 285 285 285 285 284 283 282 282 282 281 281 280 279 277 276 272 265 256 249 243 236 229 226 221 212 206 194 184 181 178 177 177 177 176 176 176 177 178 180
279 280 281 282 283 283 282 282 283 283 283 282 281 279 278 278 277 275 274 271 264 256 247 238 233 230 227 222 212 197 179 172 169 169 173 173 173 174 174 174 175 177 177